Location: Dob?e?
(49.9411°N, 15.1496°E)
Time: 12:18:23
(UTC+00:00)

DELFI C3 - Pass Details

Date: 23 October 2021
Orbit: 529 x 543 km, 97.4° (Epoch: 29 November)

Event Time Altitude Azimuth Distance (km) Brightness Sun altitude
Exits shadow 17:03:23 18° 97° (E) 1,346 ? -12.0°
Maximum altitude 17:04:53 23° 65° (ENE) 1,173 ? -12.3°
Drops below altitude 10° 17:07:56 10° 12° (NNE) 1,790 ? -12.8°
Sets 17:10:21 0° 358° (N) 2,686 ? -13.2°
